DW9072 Weather Reports


time (UTC)temp
F
wind
direction
speed
knots
gust
knots
rain 1hr
in
rain 24hr
in
rain mn
in
humidity
%
barometer
mb
20260507161727 57 274 0.0 0.0 0.00 0.00 0.00 61 1013.3
20260507161228 56 279 0.0 0.0 0.00 0.00 0.00 61 1013.3
20260507160727 56 302 0.0 0.0 0.00 0.00 0.00 62 1013.4
20260507160250 56 316 0.0 0.0 0.00 0.00 0.00 63 1013.3
20260507155728 56 281 0.0 0.0 0.00 0.00 0.00 63 1013.3
20260507155251 56 312 0.0 0.0 0.00 0.00 0.00 63 1013.5
20260507154740 56 310 0.0 0.0 0.00 0.00 0.00 64 1013.4
20260507154243 55 303 0.0 0.0 0.00 0.00 0.00 64 1013.5
20260507153742 55 250 0.0 0.0 0.00 0.00 0.00 65 1013.4
20260507153243 55 258 0.0 0.0 0.00 0.00 0.00 64 1013.4
20260507152743 55 318 0.0 0.0 0.00 0.00 0.00 64 1013.4
20260507152246 55 225 0.0 0.0 0.00 0.00 0.00 66 1013.4
20260507151755 54 261 0.0 0.0 0.00 0.00 0.00 67 1013.5
20260507151255 54 295 0.0 0.0 0.00 0.00 0.00 68 1013.5
20260507150734 54 280 0.0 0.0 0.00 0.00 0.00 69 1013.5
20260507150256 53 249 0.0 0.0 0.00 0.00 0.00 69 1013.5
20260507145757 53 277 0.0 0.0 0.00 0.00 0.00 69 1013.3
20260507145237 53 249 0.0 0.0 0.00 0.00 0.00 70 1013.2
20260507144726 52 265 0.0 0.0 0.00 0.00 0.00 72 1013.2
20260507144248 52 292 0.0 0.0 0.00 0.00 0.00 72 1013.2
20260507143732 53 290 0.0 0.0 0.00 0.00 0.00 72 1013.2
20260507143254 52 310 0.0 0.0 0.00 0.00 0.00 72 1013.2
20260507142735 52 319 0.0 0.0 0.00 0.00 0.00 72 1013.3
20260507142259 52 294 0.0 0.0 0.00 0.00 0.00 73 1013.0
20260507141727 52 266 0.0 0.0 0.00 0.00 0.00 73 1012.9
20260507141227 52 274 0.0 0.0 0.00 0.00 0.00 73 1012.9
20260507140727 52 268 0.0 0.0 0.00 0.00 0.00 73 1012.7
20260507140307 52 251 0.0 0.0 0.00 0.00 0.00 74 1012.7
20260507135745 52 194 0.0 0.0 0.00 0.00 0.00 74 1012.6
20260507135245 51 256 0.0 0.0 0.00 0.00 0.00 76 1012.7
20260507134733 50 257 0.0 0.0 0.00 0.00 0.00 77 1012.6
20260507134234 50 246 0.0 0.0 0.00 0.00 0.00 78 1012.6
20260507133734 49 247 0.0 0.0 0.00 0.00 0.00 80 1012.7
20260507133235 49 259 0.0 0.0 0.00 0.00 0.00 80 1012.8
20260507132736 49 245 0.0 0.0 0.00 0.00 0.00 80 1012.8
20260507132240 49 262 0.0 0.0 0.00 0.00 0.00 80 1012.9
20260507131731 49 240 0.0 0.0 0.00 0.00 0.00 81 1012.8
20260507131232 49 261 0.0 0.0 0.00 0.00 0.00 81 1012.8
20260507130729 48 247 0.0 0.0 0.00 0.00 0.00 82 1012.8
20260507130233 48 246 0.0 0.0 0.00 0.00 0.00 82 1012.9
20260507125751 48 251 0.0 0.0 0.00 0.00 0.00 81 1013.1
20260507125251 48 256 0.0 0.0 0.00 0.00 0.00 82 1013.1
20260507124741 48 263 0.0 0.0 0.00 0.00 0.00 82 1013.2
20260507124240 48 270 0.0 0.0 0.00 0.00 0.00 83 1013.2
20260507123740 47 285 0.0 0.0 0.00 0.00 0.00 82 1013.3
20260507123240 47 256 0.0 0.0 0.00 0.00 0.00 82 1013.3
20260507122741 47 290 0.0 0.0 0.00 0.00 0.00 82 1013.4
20260507122306 47 126 0.0 0.0 0.00 0.00 0.00 82 1013.4
20260507121731 47 126 0.0 0.0 0.00 0.00 0.00 82 1013.4
20260507121233 47 126 0.0 0.0 0.00 0.00 0.00 81 1013.4
20260507120732 47 126 0.0 0.0 0.00 0.00 0.00 81 1013.4
20260507120253 47 126 0.0 0.0 0.00 0.00 0.00 80 1013.4
20260507115732 47 126 0.0 0.0 0.00 0.00 0.00 80 1013.3
20260507115253 48 127 0.0 0.0 0.00 0.00 0.00 80 1013.3
20260507114743 48 157 0.0 0.0 0.00 0.00 0.00 80 1013.3
20260507114259 48 157 0.0 0.0 0.00 0.00 0.00 80 1013.3
20260507113738 48 157 0.0 0.0 0.00 0.00 0.00 82 1013.2
20260507113235 48 166 0.0 0.0 0.00 0.00 0.00 79 1013.2
20260507112756 48 245 0.0 0.0 0.00 0.00 0.00 79 1013.2
20260507112241 48 245 0.0 0.0 0.00 0.00 0.00 78 1013.2
20260507111731 49 246 0.0 0.0 0.00 0.00 0.00 78 1013.2
20260507111232 50 240 0.0 0.0 0.00 0.00 0.00 77 1013.0
20260507110733 50 251 0.0 0.0 0.00 0.00 0.00 76 1013.0
20260507110230 50 252 0.0 0.0 0.00 0.00 0.00 75 1013.1
20260507105730 51 285 0.0 0.0 0.00 0.00 0.00 73 1013.2
20260507105312 51 312 0.0 0.0 0.00 0.00 0.00 73 1013.1
20260507104742 51 241 0.0 0.0 0.00 0.00 0.00 74 1013.1
20260507104243 51 263 0.0 0.0 0.00 0.00 0.00 74 1013.0
20260507103741 51 274 0.0 0.0 0.00 0.00 0.00 73 1012.9
20260507103242 51 200 0.0 0.0 0.00 0.00 0.00 75 1012.9
20260507102740 51 166 0.0 0.0 0.00 0.00 0.00 75 1013.0
20260507102258 51 166 0.0 0.0 0.00 0.00 0.00 75 1013.0
20260507101806 51 166 0.0 0.0 0.00 0.00 0.00 76 1012.9
20260507101243 51 159 0.0 0.0 0.00 0.00 0.00 76 1012.9
20260507100744 52 170 0.0 0.0 0.00 0.00 0.00 73 1012.8
20260507100242 52 229 0.0 0.0 0.00 0.00 0.00 73 1012.7
20260507095739 52 251 0.0 0.0 0.00 0.00 0.00 73 1012.8
20260507095240 52 267 0.0 0.0 0.00 0.00 0.00 72 1012.7
20260507094734 52 281 0.0 0.0 0.00 0.00 0.00 72 1012.8
20260507094254 52 321 0.0 0.0 0.00 0.00 0.00 73 1012.9
20260507093733 53 321 0.0 0.0 0.00 0.00 0.00 72 1013.0
20260507093233 53 322 0.0 0.0 0.00 0.00 0.00 72 1013.0
20260507092734 53 312 0.0 0.0 0.00 0.00 0.00 69 1013.0
20260507092316 53 289 0.0 0.0 0.00 0.00 0.00 67 1012.8
20260507091744 53 256 0.0 0.0 0.00 0.00 0.00 66 1012.8
20260507091306 54 180 0.0 0.0 0.00 0.00 0.00 66 1012.8
20260507090727 54 180 0.0 0.0 0.00 0.00 0.00 66 1012.9
20260507090228 54 180 0.0 0.0 0.00 0.00 0.00 66 1012.9
20260507085729 54 180 0.0 0.0 0.00 0.00 0.00 66 1012.9
20260507085252 54 264 0.0 0.0 0.00 0.00 0.00 66 1013.0
20260507084742 54 160 0.0 0.0 0.00 0.00 0.00 67 1012.9
20260507084242 53 162 0.0 0.0 0.00 0.00 0.00 67 1012.8
20260507083758 53 168 0.0 0.0 0.00 0.00 0.00 70 1013.0
20260507083238 54 199 0.0 0.0 0.00 0.00 0.00 67 1012.9
20260507082739 54 162 0.0 0.0 0.00 0.00 0.00 67 1013.0
20260507082238 54 154 0.0 0.0 0.00 0.00 0.00 66 1012.9
20260507081730 54 165 0.0 0.0 0.00 0.00 0.00 67 1013.0
20260507081229 54 162 0.0 0.0 0.00 0.00 0.00 67 1013.0
20260507080746 55 169 0.0 0.0 0.00 0.00 0.00 67 1013.0
20260507080243 55 319 0.0 0.0 0.00 0.00 0.00 66 1013.0
20260507075804 55 244 0.0 0.0 0.00 0.00 0.00 67 1013.3
20260507075242 54 154 0.0 0.0 0.00 0.00 0.00 67 1013.2
20260507074728 54 284 0.0 0.0 0.00 0.00 0.00 67 1013.2
20260507074249 54 331 0.0 0.0 0.00 0.00 0.00 67 1013.1
20260507073730 54 331 0.0 0.0 0.00 0.00 0.00 67 1013.0
20260507073230 55 331 0.0 0.0 0.00 0.00 0.00 67 1013.0
20260507072729 55 331 0.0 0.0 0.00 0.00 0.00 66 1013.0
20260507072251 55 283 0.0 0.0 0.00 0.00 0.00 64 1013.0
20260507071743 55 282 0.0 0.0 0.00 0.00 0.00 63 1013.0
20260507071242 55 286 0.0 0.0 0.00 0.00 0.00 62 1013.0
20260507070743 55 292 0.0 0.0 0.00 0.00 0.00 63 1013.0
20260507070244 55 296 0.0 0.0 0.00 0.00 0.00 61 1013.0
20260507065743 55 248 0.0 0.0 0.00 0.00 0.00 61 1013.0
20260507065244 55 262 0.0 0.0 0.00 0.00 0.00 61 1012.9
20260507064734 55 253 0.0 0.0 0.00 0.00 0.00 61 1013.0
20260507064240 56 272 0.0 0.0 0.00 0.00 0.00 61 1013.2
20260507063740 56 279 0.0 0.0 0.00 0.00 0.00 61 1013.1
20260507063238 56 284 0.0 0.0 0.00 0.00 0.00 62 1013.2
20260507062759 56 295 0.0 0.0 0.00 0.00 0.00 62 1013.2
20260507062241 56 295 0.0 0.0 0.00 0.00 0.00 61 1013.2
20260507061752 56 296 0.0 0.0 0.00 0.00 0.00 59 1013.3
20260507061252 57 294 0.0 0.0 0.00 0.00 0.00 59 1013.3
20260507060732 57 294 0.0 0.0 0.00 0.00 0.00 59 1013.2
20260507060235 57 282 0.0 0.0 0.00 0.00 0.00 59 1013.2
20260507055730 57 292 0.0 0.0 0.00 0.00 0.00 56 1013.0
20260507055251 58 296 0.0 0.0 0.00 0.00 0.00 56 1013.2
20260507054743 58 301 0.0 0.0 0.00 0.00 0.00 56 1013.1
20260507054244 58 296 0.0 0.0 0.00 0.00 0.00 55 1013.0
20260507053725 58 307 0.0 0.0 0.00 0.00 0.00 54 1012.9
20260507053246 58 298 0.0 0.0 0.00 0.00 0.00 55 1013.0
20260507052726 59 294 0.0 0.0 0.00 0.00 0.00 51 1012.9
20260507052310 60 301 0.0 0.0 0.00 0.00 0.00 54 1013.0
20260507051740 60 291 0.0 0.0 0.00 0.00 0.00 51 1013.0
20260507051239 60 309 0.0 0.9 0.00 0.00 0.00 51 1013.0
20260507050744 60 310 0.0 0.0 0.00 0.00 0.00 49 1012.9
20260507050244 61 307 0.0 0.0 0.00 0.00 0.00 48 1012.9
20260507045745 61 279 0.0 0.9 0.00 0.00 0.00 46 1013.0
20260507045246 62 302 0.0 0.0 0.00 0.00 0.00 47 1013.0
20260507044737 62 301 0.0 0.0 0.00 0.00 0.00 46 1012.8
20260507044239 62 295 0.0 0.0 0.00 0.00 0.00 45 1012.7
20260507043742 62 271 0.0 0.0 0.00 0.00 0.00 46 1012.8
20260507043242 62 304 0.0 0.0 0.00 0.00 0.00 46 1012.6
20260507042741 62 309 0.0 0.9 0.00 0.00 0.00 47 1012.7
20260507042306 62 283 0.0 0.9 0.00 0.00 0.00 46 1012.7
20260507041730 62 294 0.0 0.0 0.00 0.00 0.00 46 1012.7
20260507041232 62 285 0.0 0.9 0.00 0.00 0.00 46 1012.6
20260507040731 63 273 0.0 0.9 0.00 0.00 0.00 45 1012.6
20260507040231 63 313 0.0 0.9 0.00 0.00 0.00 44 1012.6
20260507035734 63 279 0.0 0.9 0.00 0.00 0.00 44 1012.4
20260507035235 64 282 0.0 0.9 0.00 0.00 0.00 43 1012.4
20260507034727 64 289 0.0 0.9 0.00 0.00 0.00 43 1012.4
20260507034228 63 277 0.0 0.9 0.00 0.00 0.00 43 1012.4
20260507033727 64 299 0.0 1.7 0.00 0.00 0.00 44 1012.4
20260507033227 64 287 0.0 1.7 0.00 0.00 0.00 43 1012.3
20260507032731 63 272 0.0 2.6 0.00 0.00 0.00 44 1012.3
20260507032253 64 291 0.0 2.6 0.00 0.00 0.00 44 1012.3
20260507031744 64 273 0.0 2.6 0.00 0.00 0.00 43 1012.4
20260507031243 64 293 0.0 2.6 0.00 0.00 0.00 43 1012.4
20260507030804 64 283 0.0 1.7 0.00 0.00 0.00 42 1012.3
20260507030242 64 266 0.0 1.7 0.00 0.00 0.00 42 1012.4
20260507025744 65 268 0.0 1.7 0.00 0.00 0.00 41 1012.3
20260507025244 65 268 0.0 1.7 0.00 0.00 0.00 41 1012.4
20260507024734 65 287 0.0 0.9 0.00 0.00 0.00 41 1012.4
20260507024239 65 285 0.0 1.7 0.00 0.00 0.00 40 1012.3
20260507023800 65 295 0.0 1.7 0.00 0.00 0.00 40 1012.4
20260507023240 65 290 0.0 0.9 0.00 0.00 0.00 44 1012.3
20260507022740 65 287 0.0 0.9 0.00 0.00 0.00 44 1012.3
20260507022242 65 300 0.0 0.9 0.00 0.00 0.00 45 1012.2
20260507021734 65 300 0.0 0.0 0.00 0.00 0.00 46 1012.2
20260507021233 64 318 0.0 0.0 0.00 0.00 0.00 46 1012.2
20260507020734 64 304 0.0 0.9 0.00 0.00 0.00 47 1012.1
20260507020234 64 313 0.0 0.9 0.00 0.00 0.00 46 1012.1
20260507015737 64 310 0.0 0.9 0.00 0.00 0.00 47 1012.2
20260507015259 64 309 0.0 0.9 0.00 0.00 0.00 47 1012.1
20260507014727 65 305 0.0 0.9 0.00 0.00 0.00 46 1012.2
20260507014227 65 329 0.0 0.9 0.00 0.00 0.00 45 1012.1
20260507013730 65 307 0.0 0.9 0.00 0.00 0.00 45 1012.2
20260507013230 65 302 0.0 0.9 0.00 0.00 0.00 44 1012.2
20260507012734 66 308 0.0 0.0 0.00 0.00 0.00 45 1012.3
20260507012237 66 295 0.0 0.9 0.00 0.00 0.00 43 1012.2
20260507011728 66 303 0.0 0.9 0.00 0.00 0.00 42 1012.2
20260507011229 66 287 0.0 0.9 0.00 0.00 0.00 41 1012.3
20260507010728 67 308 0.0 0.0 0.00 0.00 0.00 41 1012.3
20260507010250 67 315 0.0 3.5 0.00 0.00 0.00 40 1012.3
20260507005728 68 320 0.0 3.5 0.00 0.00 0.00 39 1012.3
20260507005249 68 300 0.0 0.9 0.00 0.00 0.00 38 1012.2
20260507004759 68 317 0.0 1.7 0.00 0.00 0.00 39 1012.3
20260507004239 69 309 0.0 1.7 0.00 0.00 0.00 38 1012.3
20260507003738 69 319 0.0 0.9 0.00 0.00 0.00 38 1012.1
20260507003241 69 322 0.0 0.0 0.00 0.00 0.00 37 1012.1
20260507002743 69 325 0.0 0.9 0.00 0.00 0.00 37 1012.1
20260507002235 69 322 0.0 0.9 0.00 0.00 0.00 38 1012.1
20260507001800 69 328 0.0 1.7 0.00 0.00 0.00 37 1012.0
20260507001239 69 309 0.0 1.7 0.00 0.00 0.00 38 1011.9
20260507000740 70 311 0.0 0.9 0.00 0.00 0.00 38 1011.9
20260507000246 70 301 0.0 3.5 0.00 0.00 0.00 38 1011.9
20260506235747 70 289 0.0 3.5 0.00 0.00 0.00 39 1011.8
20260506235250 70 313 0.0 0.9 0.00 0.00 0.00 40 1011.8
20260506234741 71 323 0.0 0.9 0.00 0.00 0.00 38 1011.9
20260506234241 71 325 0.0 0.9 0.00 0.00 0.00 38 1011.9
20260506233741 71 318 0.0 0.0 0.00 0.00 0.00 38 1012.0
20260506233243 71 327 0.0 0.0 0.00 0.00 0.00 39 1012.1
20260506232744 71 299 0.0 0.0 0.00 0.00 0.00 38 1012.1
20260506232246 71 294 0.0 0.0 0.00 0.00 0.00 38 1012.1
20260506231738 71 300 0.0 0.0 0.00 0.00 0.00 37 1012.1
20260506231238 71 310 0.0 1.7 0.00 0.00 0.00 38 1012.1
20260506230739 71 297 0.0 1.7 0.00 0.00 0.00 38 1012.1
20260506230238 71 282 0.0 2.6 0.00 0.00 0.00 37 1012.2
20260506225741 71 289 0.0 5.2 0.00 0.00 0.00 37 1012.1
20260506225241 71 305 0.0 5.2 0.00 0.00 0.00 36 1012.1
20260506224732 72 309 0.0 5.2 0.00 0.00 0.00 38 1012.2
20260506224231 71 277 0.0 5.2 0.00 0.00 0.00 35 1012.3
20260506223738 71 283 0.0 1.7 0.00 0.00 0.00 35 1012.5
20260506223239 72 280 0.0 1.7 0.00 0.00 0.00 35 1012.6
20260506222739 72 298 0.0 0.0 0.00 0.00 0.00 34 1012.6
20260506222241 73 286 0.0 0.0 0.00 0.00 0.00 33 1012.6
20260506221731 73 300 0.0 0.0 0.00 0.00 0.00 34 1012.5
20260506221231 73 315 0.0 0.0 0.00 0.00 0.00 35 1012.6
20260506220731 73 319 0.0 0.0 0.00 0.00 0.00 36 1012.6
20260506220232 73 311 0.0 0.0 0.00 0.00 0.00 35 1012.5
20260506215751 74 286 0.0 0.0 0.00 0.00 0.00 34 1012.5
20260506215252 74 315 0.0 0.0 0.00 0.00 0.00 34 1012.5
20260506214742 73 307 0.0 7.0 0.00 0.00 0.00 35 1012.5
20260506214242 73 309 0.0 7.0 0.00 0.00 0.00 33 1012.4
20260506213742 74 302 0.0 0.0 0.00 0.00 0.00 33 1012.5
20260506213242 74 294 0.0 0.0 0.00 0.00 0.00 34 1012.4
20260506212727 73 316 0.0 0.0 0.00 0.00 0.00 35 1012.3
20260506212248 73 283 0.0 8.7 0.00 0.00 0.00 35 1012.5
20260506211739 73 281 0.9 8.7 0.00 0.00 0.00 35 1012.4
20260506211241 73 317 0.0 0.9 0.00 0.00 0.00 35 1012.4
20260506210742 73 324 0.0 3.5 0.00 0.00 0.00 39 1012.4
20260506210243 73 319 0.0 3.5 0.00 0.00 0.00 35 1012.4
20260506205744 72 279 0.0 1.7 0.00 0.00 0.00 39 1012.5
20260506205244 72 315 0.0 0.9 0.00 0.00 0.00 41 1012.4
20260506204735 72 317 0.0 0.0 0.00 0.00 0.00 40 1012.5
20260506204236 72 307 0.0 0.0 0.00 0.00 0.00 41 1012.6
20260506203737 72 328 0.0 0.0 0.00 0.00 0.00 40 1012.6
20260506203300 73 296 0.0 0.0 0.00 0.00 0.00 39 1012.6
20260506202759 72 306 0.0 2.6 0.00 0.00 0.00 39 1012.4
20260506202318 73 267 0.0 2.6 0.00 0.00 0.00 40 1012.5
20260506201726 72 300 0.0 8.7 0.00 0.00 0.00 37 1012.4
20260506201226 72 299 0.0 8.7 0.00 0.00 0.00 36 1012.4
20260506200808 72 273 0.0 1.7 0.00 0.00 0.00 41 1012.3
20260506200227 71 290 0.0 0.0 0.00 0.00 0.00 43 1012.3
20260506195728 71 308 0.0 0.9 0.00 0.00 0.00 44 1012.5
20260506195250 71 286 0.0 0.9 0.00 0.00 0.00 44 1012.4
20260506194759 70 262 0.0 0.0 0.00 0.00 0.00 48 1012.4
20260506194241 70 267 0.0 0.9 0.00 0.00 0.00 48 1012.5
20260506193742 69 297 0.0 7.0 0.00 0.00 0.00 50 1012.4
20260506193243 69 291 0.9 7.0 0.00 0.00 0.00 50 1012.3
20260506192743 69 295 0.0 22.6 0.00 0.00 0.00 51 1012.2
20260506192245 69 310 0.0 22.6 0.00 0.00 0.00 51 1012.2
20260506191756 69 301 0.9 8.7 0.00 0.00 0.00 51 1012.1
20260506191236 68 266 0.0 0.0 0.00 0.00 0.00 51 1012.2
20260506190736 68 285 0.0 0.0 0.00 0.00 0.00 52 1012.4
20260506190258 68 296 0.0 0.0 0.00 0.00 0.00 53 1012.3
20260506185738 67 306 0.0 0.0 0.00 0.00 0.00 53 1012.4
20260506185240 67 300 0.0 0.0 0.00 0.00 0.00 52 1012.4
20260506184731 67 307 0.0 0.0 0.00 0.00 0.00 54 1012.3
20260506184232 66 285 0.0 5.2 0.00 0.00 0.00 55 1012.3
20260506183736 66 311 0.0 5.2 0.00 0.00 0.00 54 1012.3
20260506183235 66 307 0.0 0.0 0.00 0.00 0.00 54 1012.4
20260506182735 66 305 0.0 0.0 0.00 0.00 0.00 55 1012.4
20260506182241 66 309 0.0 1.7 0.00 0.00 0.00 54 1012.6
20260506181733 67 318 0.0 1.7 0.00 0.00 0.00 53 1012.6
20260506181233 67 307 0.0 1.7 0.00 0.00 0.00 53 1012.5
20260506180755 68 295 0.0 0.0 0.00 0.00 0.00 52 1012.6
20260506180234 68 308 0.0 0.0 0.00 0.00 0.00 53 1012.7
20260506175733 67 287 0.0 0.0 0.00 0.00 0.00 53 1012.6
20260506175254 67 284 0.0 4.3 0.00 0.00 0.00 53 1012.7
20260506174724 67 290 0.0 4.3 0.00 0.00 0.00 51 1012.7
20260506174244 67 259 0.0 0.0 0.00 0.00 0.00 52 1012.7
20260506173744 66 145 0.0 0.0 0.00 0.00 0.00 54 1012.7
20260506173303 66 257 0.0 0.0 0.00 0.00 0.00 54 1012.6
20260506172742 65 258 0.0 0.0 0.00 0.00 0.00 52 1012.6
20260506172242 65 260 0.0 0.0 0.00 0.00 0.00 53 1012.7
20260506171732 64 300 0.0 0.9 0.00 0.00 0.00 56 1012.6
20260506171233 64 296 0.0 2.6 0.00 0.00 0.00 54 1012.5
20260506170755 63 302 0.0 2.6 0.00 0.00 0.00 52 1012.6
20260506170235 64 320 0.0 2.6 0.00 0.00 0.00 53 1012.7
20260506165736 63 314 0.0 0.9 0.00 0.00 0.00 51 1012.9
20260506165244 63 307 0.0 3.5 0.00 0.00 0.00 51 1013.0
20260506164737 63 280 0.0 3.5 0.00 0.00 0.00 52 1013.0
20260506164238 63 289 0.0 3.5 0.00 0.00 0.00 52 1012.9
20260506163801 62 250 0.0 2.6 0.00 0.00 0.00 52 1013.0
20260506163240 63 329 0.0 0.0 0.00 0.00 0.00 52 1013.0
20260506162802 62 275 0.0 0.0 0.00 0.00 0.00 53 1013.0
20260506162241 62 293 0.0 1.7 0.00 0.00 0.00 52 1013.2